Location: La Fredeussais
(48.1780°N, 1.3980°W)
Time: 04:13:12
(UTC+00:00)

deb Kosmos-1763 - Pass Details

Date: 09 May 2021
Orbit: 448 x 457 km, 74.0° (Epoch: 13 June)

Event Time Altitude Azimuth Distance (km) Brightness Sun altitude
Rises 21:49:05 0° 336° (NNW) 2,487 9.3 -17.8°
Reaches altitude 10° 21:51:11 10° 336° (NNW) 1,611 7.9 -18.0°
Maximum altitude 21:54:44 84° 248° (WSW) 469 3.9 -18.3°
Enters shadow 21:55:25 56° 168° (SSE) 556 3.9 -18.4°
